Tracking 30995 objects as of 7-Jul-2025
HD Live streaming from Space Station
objects crossing your sky now

DMSP 5D-3 F18 DEB

Track DMSP 5D-3 F18 DEB now!
10-day predictions


NORAD ID: 36099
Int'l Code: 2009-057E
Perigee: 766.3 km
Apogee: 774.8 km
Inclination: 98.6 °
Period: 100.1 minutes
Semi major axis: 7141 km
RCS: 0.1565 m2 (medium)
Launch date: October 18, 2009
Source: United States (US)
Launch site: AIR FORCE WESTERN TEST RANGE (AFWTR)

Note: This is SATELLITE DEBRIS
Your satellite tracking list
SL-12 R/B(2)
Track 1 satellite(s)




NASA's NSSDC Master Catalog

Two Line Element Set (TLE):
1 36099U 09057E   25187.47672826  .00004154  00000-0  13729-2 0  9991
2 36099  98.6435 272.6492 0005956 289.1999  70.8544 14.38525722810521
Source of the keplerian elements: AFSPC